[[{"header":{"parameterUnit":"m.s-1","parameterCategory":2,"la1":30.2991,"la2":30.254,"lo1":-89.0895,"lo2":-89.0444,"dy":0.0017,"dx":0.0017,"nx":28,"ny":28,"refTime":"2025-09-05T21:00:00:Z","depth":"0","parameterNumber":2,"parameterNumberName":"U-component_of_CURRENTS"},"data":[0,0,0,0,0,0,0,0,0,0,0,0,0,0,0,0,0,0,0,0,0,0,0,0,0,0,0,0,0,0,0,0,0,0,0,0,0,0,0,0,0,0,0,0,0,0,0,0,0,0,0,0,0,0,0,0,0,0,-0.2261,-0.2261,0,-0.2295,-0.2296,-0.2296,-0.2274,-0.2273,-0.2272,-0.2271,-0.2267,-0.2268,-0.2269,0,0,0,0,0,0,0,0,0,0,0,0,0,-0.2234,-0.2234,-0.2261,-0.2261,-0.2262,-0.2295,-0.2296,-0.2296,-0.2274,-0.2273,-0.2272,-0.2271,-0.2267,-0.2268,-0.2269,0,0,0,0,0,0,0,0,0,0,0,0,0,-0.2253,-0.2234,-0.2261,-0.2256,-0.2256,-0.2295,-0.2296,-0.2296,-0.2274,-0.2273,-0.2271,-0.227,-0.2267,-0.2268,-0.2269,-0.2302,0,0,-0.2272,-0.2273,0,0,0,0,0,0,0,0,-0.2252,-0.2254,-0.2256,-0.2256,-0.2257,-0.228,-0.2285,-0.2297,-0.2274,-0.2266,-0.2271,-0.2269,-0.227,-0.2271,-0.2278,-0.2302,-0.2302,-0.2272,-0.2273,-0.2273,-0.2274,0,0,0,0,0,0,0,-0.2251,-0.2253,-0.2273,-0.2257,-0.2257,-0.2272,-0.2273,-0.2287,-0.2273,-0.2266,-0.2265,-0.2272,-0.2269,-0.2278,-0.2278,-0.2302,-0.2272,-0.2273,-0.2274,-0.2274,-0.2301,-0.2301,0,0,0,0,0,0,-0.2248,-0.2251,-0.2272,-0.2274,-0.2253,-0.2274,-0.2274,-0.2273,-0.2274,-0.2273,-0.2273,-0.2271,-0.2276,-0.2277,-0.2278,-0.2288,-0.2273,-0.2274,-0.2275,-0.2301,-0.2301,-0.2301,0,0,0,0,0,0,-0.2247,-0.2249,-0.227,-0.2265,-0.2269,-0.2275,-0.2274,-0.2274,-0.2278,-0.2279,-0.2278,-0.2276,-0.2275,-0.2276,-0.2281,-0.2288,-0.2275,-0.2276,-0.2301,-0.2301,-0.2301,-0.2326,0,0,0,0,0,0,-0.2246,-0.2249,-0.2244,-0.2265,-0.2269,-0.2285,-0.2275,-0.2276,-0.2285,-0.2282,-0.2282,-0.228,-0.2274,-0.228,-0.2282,-0.229,-0.2277,-0.2301,-0.2301,-0.2301,-0.2326,-0.2327,-0.2329,0,0,0,0,0,-0.2245,-0.224,-0.2243,-0.2246,-0.2263,-0.2286,-0.2289,-0.2289,-0.2286,-0.2288,-0.2285,-0.228,-0.2282,-0.2281,-0.2284,-0.2292,-0.2301,-0.2301,-0.2301,-0.2325,-0.2327,-0.2329,0,0,0,0,0,0,-0.2227,-0.2238,-0.2242,-0.224,-0.226,-0.2282,-0.2282,-0.2294,-0.2296,-0.2289,-0.2289,-0.2288,-0.2295,-0.229,-0.2289,-0.2297,-0.2288,-0.2288,-0.2305,-0.2307,-0.2309,-0.2313,-0.2278,0,0,0,0,0,-0.2223,-0.222,-0.2242,-0.2243,-0.2248,-0.2269,-0.2278,-0.2285,-0.2294,-0.2294,-0.23,-0.2298,-0.2302,-0.23,-0.2304,-0.2315,-0.2315,-0.2317,-0.2319,-0.2321,-0.2325,-0.233,-0.2333,-0.2301,-0.2301,-0.2301,0,0,-0.2222,-0.2225,-0.2226,-0.224,-0.2251,-0.2268,-0.227,-0.2284,-0.2302,-0.2295,-0.2311,-0.2311,-0.2307,-0.2315,-0.2316,-0.2308,-0.2331,-0.2321,-0.2323,-0.2326,-0.233,-0.2333,-0.2336,-0.2301,-0.2301,-0.2301,0,0,-0.2224,-0.2215,-0.2219,-0.2232,-0.225,-0.2264,-0.227,-0.2296,-0.2303,-0.2326,-0.2321,-0.2323,-0.2336,-0.2331,-0.2331,-0.2346,-0.2344,-0.2344,-0.2355,-0.2359,-0.2362,-0.2364,-0.2374,-0.2378,-0.234,-0.234,-0.234,0,-0.2221,-0.2227,-0.2227,-0.2237,-0.225,-0.2263,-0.2282,-0.2297,-0.2325,-0.2338,-0.2328,-0.2351,-0.2344,-0.2356,-0.2353,-0.2352,-0.2355,-0.2349,-0.2362,-0.2365,-0.2367,-0.2376,-0.238,-0.2341,-0.2341,-0.2341,-0.234,0,-0.223,-0.2238,-0.224,-0.2254,-0.2269,-0.2284,-0.2307,-0.2325,-0.2338,-0.2357,-0.2377,-0.2372,-0.238,-0.2378,-0.237,-0.2382,-0.2381,-0.237,-0.236,-0.2372,-0.2381,-0.2384,-0.2343,-0.2342,-0.2342,-0.2342,0,0,-0.22,-0.2242,-0.2239,-0.226,-0.2279,-0.2296,-0.2322,-0.2354,-0.238,-0.2392,-0.2424,-0.2418,-0.2415,-0.2413,-0.2404,-0.2404,-0.2419,-0.2392,-0.2391,-0.2407,-0.2436,-0.2388,-0.2387,-0.2411,-0.2412,-0.2412,-0.2438,0,-0.2206,-0.2242,-0.2256,-0.229,-0.2309,-0.233,-0.2359,-0.2388,-0.241,-0.2443,-0.2437,-0.2456,-0.2428,-0.2433,-0.2427,-0.243,-0.2427,-0.2413,-0.2417,-0.2417,-0.2378,-0.2388,-0.2302,-0.2314,-0.2441,-0.2442,-0.2442,0,-0.2189,-0.2224,-0.2265,-0.2322,-0.2331,-0.2352,-0.2398,-0.2428,-0.2466,-0.2487,-0.2497,-0.2498,-0.2501,-0.2473,-0.2473,-0.2467,-0.2449,-0.2445,-0.2445,-0.2394,-0.2375,-0.2321,-0.2314,-0.2291,-0.2446,-0.2446,-0.2446,0,-0.2156,-0.2216,-0.2255,-0.227,-0.2339,-0.236,-0.2391,-0.2434,-0.2471,-0.2508,-0.2538,-0.254,-0.2547,-0.253,-0.25,-0.2493,-0.2503,-0.2491,-0.2433,-0.243,-0.2353,-0.2342,-0.2326,-0.2484,-0.2484,-0.2484,-0.2484,0,-0.2135,-0.2158,-0.2246,-0.2263,-0.231,-0.2354,-0.2403,-0.2435,-0.2497,-0.2531,-0.2549,-0.2569,-0.256,-0.2558,-0.2526,-0.2487,-0.2517,-0.244,-0.2432,-0.2359,-0.2349,-0.2321,-0.2328,-0.2485,-0.2485,-0.2484,-0.2484,0,-0.2069,-0.2133,-0.2175,-0.2262,-0.2292,-0.2313,-0.2405,-0.2443,-0.2504,-0.2551,-0.2563,-0.2602,-0.2589,-0.2576,-0.2557,-0.2517,-0.2441,-0.246,-0.2377,-0.2358,-0.2275,-0.2287,-0.2243,-0.2185,-0.2412,-0.2411,-0.241,0,-0.2039,-0.2055,-0.2152,-0.2185,-0.2219,-0.2281,-0.2328,-0.2421,-0.2465,-0.2554,-0.2568,-0.259,-0.257,-0.2543,-0.2491,-0.2443,-0.2395,-0.2326,-0.2286,-0.226,-0.2269,-0.2253,-0.2205,-0.2203,-0.22,-0.2198,-0.2196,0,-0.1966,-0.1996,-0.2039,-0.2107,-0.2162,-0.2231,-0.2302,-0.2344,-0.2443,-0.2482,-0.2507,-0.2503,-0.2506,-0.2421,-0.2377,-0.2321,-0.2263,-0.2282,-0.2274,-0.2119,-0.2081,-0.2024,-0.2209,-0.2178,-0.218,-0.2181,-0.2182,-0.2183,-0.1895,-0.1902,-0.1959,-0.2007,-0.2075,-0.2129,-0.2133,-0.2223,-0.2262,-0.2287,-0.2379,-0.2362,-0.2355,-0.2281,-0.223,-0.212,-0.2146,-0.2042,-0.2067,-0.2059,-0.1972,-0.2119,-0.2064,-0.2065,-0.2066,-0.2067,-0.2067,0,-0.1807,-0.1824,-0.186,-0.1909,-0.1924,-0.2004,-0.2072,-0.2045,-0.2025,-0.2129,-0.2136,-0.2188,-0.2109,-0.2099,-0.2027,-0.1938,-0.1873,-0.1871,-0.1832,-0.1798,-0.1941,-0.1899,-0.1782,-0.1782,-0.1782,-0.1782,-0.1782,-0.1782,-0.1762,-0.175,-0.1763,-0.1737,-0.1766,-0.1734,-0.1735,-0.1712,-0.175,-0.177,-0.1852,-0.1975,-0.2006,-0.207,-0.1941,-0.1838,-0.1766,-0.17,-0.1718,-0.1834,-0.1852,-0.1869,-0.183,-0.1701,-0.1701,-0.1502,-0.1501,-0.15]},{"header":{"parameterUnit":"m.s-1","parameterCategory":2,"la1":30.2991,"la2":30.254,"lo1":-89.0895,"lo2":-89.0444,"dy":0.0017,"dx":0.0017,"nx":28,"ny":28,"refTime":"2025-09-05T21:00:00:Z","depth":"0","parameterNumber":3,"parameterNumberName":"V-component_of_CURRENTS"},"data":[0,0,0,0,0,0,0,0,0,0,0,0,0,0,0,0,0,0,0,0,0,0,0,0,0,0,0,0,0,0,0,0,0,0,0,0,0,0,0,0,0,0,0,0,0,0,0,0,0,0,0,0,0,0,0,0,0,0,-0.0709,-0.0708,0,-0.0699,-0.0699,-0.0699,-0.0676,-0.0675,-0.0674,-0.0673,-0.0525,-0.0522,-0.0519,0,0,0,0,0,0,0,0,0,0,0,0,0,-0.0824,-0.0822,-0.0709,-0.0708,-0.0708,-0.0699,-0.0699,-0.0699,-0.0676,-0.0675,-0.0674,-0.0673,-0.0526,-0.0522,-0.0519,0,0,0,0,0,0,0,0,0,0,0,0,0,-0.0794,-0.0821,-0.0709,-0.0692,-0.069,-0.0699,-0.0699,-0.0699,-0.0676,-0.0675,-0.0674,-0.0672,-0.0527,-0.0523,-0.0518,-0.0516,0,0,-0.0504,-0.0502,0,0,0,0,0,0,0,0,-0.0796,-0.079,-0.0695,-0.0693,-0.0691,-0.0683,-0.0685,-0.063,-0.0677,-0.0686,-0.0673,-0.0672,-0.0563,-0.0555,-0.0565,-0.0509,-0.0503,-0.0503,-0.0501,-0.0499,-0.0497,0,0,0,0,0,0,0,-0.0798,-0.0791,-0.0709,-0.0694,-0.0692,-0.0724,-0.0718,-0.0676,-0.0633,-0.0685,-0.0682,-0.0674,-0.0561,-0.057,-0.0561,-0.0501,-0.0504,-0.0499,-0.0497,-0.0495,-0.0374,-0.0374,0,0,0,0,0,0,-0.0785,-0.0792,-0.071,-0.0709,-0.0736,-0.0722,-0.0715,-0.0691,-0.0637,-0.0627,-0.0676,-0.0673,-0.0578,-0.0566,-0.0555,-0.05,-0.0499,-0.0494,-0.0492,-0.0375,-0.0374,-0.0374,0,0,0,0,0,0,-0.0787,-0.0777,-0.071,-0.0748,-0.0741,-0.072,-0.0694,-0.0691,-0.0691,-0.063,-0.0618,-0.0676,-0.0577,-0.0562,-0.051,-0.0495,-0.0492,-0.0488,-0.0375,-0.0374,-0.0374,-0.042,0,0,0,0,0,0,-0.079,-0.0777,-0.0766,-0.0746,-0.0738,-0.0705,-0.0694,-0.0692,-0.0686,-0.0683,-0.0626,-0.0612,-0.0575,-0.0517,-0.0505,-0.0489,-0.0484,-0.0376,-0.0375,-0.0374,-0.0419,-0.0421,-0.0423,0,0,0,0,0,-0.0794,-0.0785,-0.0765,-0.0756,-0.0719,-0.0704,-0.0704,-0.0689,-0.0687,-0.0686,-0.0648,-0.0614,-0.0503,-0.0513,-0.0499,-0.0481,-0.0376,-0.0375,-0.0374,-0.0419,-0.0421,-0.0423,0,0,0,0,0,0,-0.0827,-0.0781,-0.0759,-0.0734,-0.0713,-0.0698,-0.0699,-0.0692,-0.0669,-0.066,-0.0612,-0.0595,-0.0543,-0.0508,-0.0521,-0.0444,-0.0432,-0.0429,-0.0471,-0.0473,-0.0475,-0.0482,-0.048,0,0,0,0,0,-0.0827,-0.0811,-0.0768,-0.075,-0.0736,-0.0719,-0.0716,-0.0702,-0.0675,-0.0666,-0.0631,-0.0583,-0.0533,-0.05,-0.0456,-0.0417,-0.0376,-0.0395,-0.0397,-0.0399,-0.0395,-0.0325,-0.032,-0.0371,-0.0371,-0.0371,0,0,-0.0833,-0.0809,-0.0797,-0.0758,-0.0741,-0.0726,-0.0715,-0.0702,-0.0693,-0.0649,-0.063,-0.0588,-0.0524,-0.048,-0.0453,-0.0446,-0.0365,-0.0397,-0.04,-0.0395,-0.0323,-0.0318,-0.0314,-0.037,-0.037,-0.037,0,0,-0.0847,-0.0812,-0.0803,-0.0787,-0.0756,-0.0739,-0.0732,-0.0712,-0.0702,-0.0675,-0.0638,-0.0592,-0.0529,-0.0483,-0.0448,-0.0433,-0.038,-0.0416,-0.0427,-0.036,-0.0355,-0.035,-0.0306,-0.0296,-0.0415,-0.0415,-0.0415,0,-0.0852,-0.0832,-0.0802,-0.0792,-0.0782,-0.0742,-0.0734,-0.0718,-0.0688,-0.0675,-0.0665,-0.0575,-0.0528,-0.046,-0.0458,-0.0436,-0.0397,-0.0426,-0.0362,-0.0357,-0.0351,-0.0306,-0.0296,-0.0417,-0.0417,-0.0416,-0.0416,0,-0.0856,-0.0844,-0.084,-0.0805,-0.0794,-0.0781,-0.0743,-0.0732,-0.0714,-0.069,-0.0634,-0.0578,-0.0521,-0.0499,-0.0473,-0.041,-0.0396,-0.0377,-0.036,-0.0349,-0.0303,-0.0291,-0.042,-0.0419,-0.0419,-0.0418,0,0,-0.0847,-0.0841,-0.0839,-0.0841,-0.0801,-0.0795,-0.077,-0.0735,-0.072,-0.0677,-0.0651,-0.0573,-0.0544,-0.0504,-0.0462,-0.0407,-0.0345,-0.0381,-0.0377,-0.0344,-0.0206,-0.0176,-0.016,-0.0312,-0.031,-0.0308,-0.0195,0,-0.0852,-0.0861,-0.0848,-0.0851,-0.0849,-0.0816,-0.0803,-0.0768,-0.0729,-0.0694,-0.0619,-0.057,-0.0542,-0.0516,-0.0455,-0.0366,-0.0313,-0.0378,-0.0216,-0.0211,-0.019,-0.0145,-0.0134,-0.0029,-0.0183,-0.0181,-0.018,0,-0.0853,-0.0864,-0.0877,-0.0889,-0.0882,-0.0875,-0.0848,-0.083,-0.0758,-0.0729,-0.0659,-0.0598,-0.0506,-0.0491,-0.0328,-0.037,-0.0296,-0.0232,-0.0225,-0.017,-0.0157,-0.0061,-0.0001,0.013,-0.0161,-0.0163,-0.0164,0,-0.0879,-0.0885,-0.0905,-0.0905,-0.09,-0.0902,-0.0892,-0.084,-0.0829,-0.0744,-0.0715,-0.0596,-0.0531,-0.0415,-0.0281,-0.0299,-0.0104,-0.0108,-0.0013,-0.0011,0.0046,0.0049,0.0249,0.0003,0.0003,0.0003,0.0002,0,-0.0892,-0.0909,-0.0923,-0.0935,-0.0963,-0.094,-0.0946,-0.0919,-0.0867,-0.0842,-0.0736,-0.0682,-0.0507,-0.0377,-0.0271,-0.0094,-0.0087,0.0001,0.0033,0.0028,0.0029,0.0182,0.0228,0.0007,0.0006,0.0005,0.0004,0,-0.0915,-0.0922,-0.0957,-0.0971,-0.0981,-0.1,-0.1005,-0.1007,-0.0941,-0.0902,-0.0875,-0.0724,-0.0548,-0.0375,-0.017,-0.0072,0.0164,0.0136,0.0107,0.0135,0.0333,0.0373,0.0602,0.0651,0.0262,0.0264,0.0265,0,-0.0931,-0.095,-0.0998,-0.1036,-0.1046,-0.1071,-0.1095,-0.1055,-0.1049,-0.0931,-0.0915,-0.0729,-0.0603,-0.0281,-0.0062,0.0158,0.0242,0.029,0.0262,0.0368,0.0438,0.0465,0.049,0.0312,0.0314,0.0315,0.0316,0,-0.0967,-0.0984,-0.1019,-0.11,-0.1144,-0.1183,-0.1201,-0.1206,-0.1142,-0.1081,-0.0969,-0.0851,-0.0526,-0.0248,0.0057,0.0184,0.0382,0.0323,0.046,0.0524,0.0544,0.0596,0.0193,0.0328,0.0327,0.0326,0.0325,0.0325,-0.1,-0.1041,-0.1101,-0.1173,-0.1231,-0.1284,-0.1305,-0.1297,-0.1271,-0.1167,-0.1039,-0.084,-0.042,0.002,0.018,0.053,0.0492,0.0618,0.0665,0.0689,0.0727,0.0339,0.0492,0.0492,0.0492,0.0492,0.0491,0,-0.1042,-0.1098,-0.1177,-0.1265,-0.134,-0.1345,-0.1372,-0.1364,-0.1327,-0.121,-0.1079,-0.0633,-0.0217,0.0174,0.0679,0.0865,0.0884,0.0957,0.1007,0.1018,0.0711,0.0704,0.0879,0.0878,0.0878,0.0878,0.0878,0.0878,-0.1069,-0.1156,-0.1201,-0.1344,-0.1401,-0.1465,-0.1472,-0.143,-0.1347,-0.1139,-0.09,-0.0714,-0.0111,0.0721,0.1188,0.1221,0.1346,0.1347,0.1413,0.1209,0.1181,0.1153,0.1161,0.1428,0.1429,0.1689,0.1692,0.1694]}],[{"header":{"parameterUnit":"m.s-1","parameterCategory":2,"la1":30.2991,"la2":30.254,"lo1":-89.0895,"lo2":-89.0444,"dy":0.0017,"dx":0.0017,"nx":28,"ny":28,"refTime":"2025-09-05T21:00:00:Z","depth":"2","parameterNumber":2,"parameterNumberName":"U-component_of_CURRENTS"},"data":[0,0,0,0,0,0,0,0,0,0,0,0,0,0,0,0,0,0,0,0,0,0,0,0,0,0,0,0,0,0,0,0,0,0,0,0,0,0,0,0,0,0,0,0,0,0,0,0,0,0,0,0,0,0,0,0,0,0,-0.2173,-0.2173,0,-0.2206,-0.2207,-0.2208,-0.219,-0.2189,-0.2188,-0.2187,-0.2171,-0.2172,-0.2173,0,0,0,0,0,0,0,0,0,0,0,0,0,-0.2146,-0.2147,-0.2173,-0.2173,-0.2173,-0.2206,-0.2207,-0.2208,-0.2191,-0.2189,-0.2188,-0.2186,-0.2171,-0.2172,-0.2173,0,0,0,0,0,0,0,0,0,0,0,0,0,-0.217,-0.2147,-0.2173,-0.2166,-0.2165,-0.2206,-0.2207,-0.2208,-0.2191,-0.2189,-0.2187,-0.2186,-0.2171,-0.2172,-0.2173,-0.2216,0,0,-0.2176,-0.2177,0,0,0,0,0,0,0,0,-0.2168,-0.2171,-0.2167,-0.2167,-0.2166,-0.2189,-0.2191,-0.2207,-0.2191,-0.2185,-0.2187,-0.2185,-0.2172,-0.2173,-0.2189,-0.2215,-0.2215,-0.2176,-0.2177,-0.2177,-0.2178,0,0,0,0,0,0,0,-0.2167,-0.217,-0.219,-0.2167,-0.2167,-0.2178,-0.218,-0.2195,-0.219,-0.2186,-0.2184,-0.2182,-0.2171,-0.2188,-0.2188,-0.2215,-0.2176,-0.2177,-0.2178,-0.2178,-0.2213,-0.2213,0,0,0,0,0,0,-0.2155,-0.2168,-0.2189,-0.2191,-0.2159,-0.218,-0.2181,-0.2187,-0.2191,-0.2189,-0.2183,-0.2181,-0.2187,-0.2187,-0.2187,-0.22,-0.2177,-0.2178,-0.2179,-0.2212,-0.2213,-0.2213,0,0,0,0,0,0,-0.2154,-0.2157,-0.2188,-0.2177,-0.2181,-0.2181,-0.2188,-0.2188,-0.2193,-0.2189,-0.2187,-0.2185,-0.2186,-0.2186,-0.2189,-0.22,-0.2179,-0.218,-0.2212,-0.2213,-0.2213,-0.225,0,0,0,0,0,0,-0.2154,-0.2157,-0.2159,-0.2176,-0.2181,-0.2198,-0.2189,-0.219,-0.2193,-0.219,-0.2191,-0.2188,-0.2184,-0.2187,-0.219,-0.2201,-0.2181,-0.2212,-0.2212,-0.2213,-0.2248,-0.2252,-0.2254,0,0,0,0,0,-0.2153,-0.2152,-0.2159,-0.2162,-0.2184,-0.2197,-0.2201,-0.2198,-0.2195,-0.2197,-0.2196,-0.2187,-0.2191,-0.2189,-0.2192,-0.2204,-0.2212,-0.2212,-0.2213,-0.2247,-0.2251,-0.2254,0,0,0,0,0,0,-0.2136,-0.2151,-0.2159,-0.2162,-0.2175,-0.2192,-0.2193,-0.22,-0.2207,-0.2202,-0.2199,-0.2197,-0.2207,-0.2198,-0.2195,-0.2213,-0.2198,-0.2199,-0.2223,-0.2226,-0.2229,-0.2232,-0.2182,0,0,0,0,0,-0.2137,-0.2144,-0.216,-0.2164,-0.2169,-0.2187,-0.2193,-0.2196,-0.2203,-0.2204,-0.2213,-0.2213,-0.2218,-0.2213,-0.2222,-0.2235,-0.2232,-0.224,-0.2243,-0.2246,-0.2249,-0.2255,-0.2259,-0.2215,-0.2215,-0.2215,0,0,-0.2136,-0.2141,-0.2148,-0.2162,-0.2173,-0.2191,-0.2186,-0.2195,-0.2213,-0.2203,-0.2231,-0.2233,-0.2225,-0.2239,-0.2241,-0.2228,-0.2258,-0.2247,-0.2249,-0.2251,-0.2256,-0.2261,-0.2265,-0.2215,-0.2215,-0.2215,0,0,-0.2134,-0.2139,-0.2148,-0.2163,-0.2176,-0.2188,-0.2189,-0.2216,-0.2225,-0.225,-0.2249,-0.2254,-0.2267,-0.2267,-0.2265,-0.2289,-0.2281,-0.2287,-0.2299,-0.2305,-0.2309,-0.2312,-0.2321,-0.2324,-0.228,-0.228,-0.228,0,-0.2133,-0.2147,-0.2151,-0.2167,-0.2181,-0.2186,-0.2208,-0.2223,-0.2251,-0.2266,-0.2255,-0.2287,-0.2281,-0.2295,-0.2298,-0.2297,-0.2298,-0.2288,-0.231,-0.2313,-0.2316,-0.2324,-0.2327,-0.2282,-0.2282,-0.2281,-0.2281,0,-0.2141,-0.216,-0.2164,-0.219,-0.2205,-0.222,-0.2243,-0.2266,-0.2277,-0.2295,-0.232,-0.232,-0.233,-0.2332,-0.232,-0.234,-0.2334,-0.2322,-0.2304,-0.2323,-0.2329,-0.2333,-0.2284,-0.2284,-0.2283,-0.2283,0,0,-0.2108,-0.2164,-0.2164,-0.2192,-0.2221,-0.2235,-0.2268,-0.2299,-0.2326,-0.2342,-0.2376,-0.2376,-0.2374,-0.2371,-0.2364,-0.2365,-0.2386,-0.2349,-0.2349,-0.2362,-0.2403,-0.2328,-0.2324,-0.2378,-0.2378,-0.2379,-0.2402,0,-0.2113,-0.216,-0.2181,-0.2225,-0.2251,-0.2279,-0.2312,-0.2342,-0.2363,-0.24,-0.2394,-0.2416,-0.2387,-0.2394,-0.2391,-0.2397,-0.2395,-0.2381,-0.2377,-0.2377,-0.2312,-0.2325,-0.2158,-0.2157,-0.2405,-0.2405,-0.2406,0,-0.21,-0.2137,-0.219,-0.2261,-0.2273,-0.2298,-0.2354,-0.2386,-0.2428,-0.245,-0.2461,-0.2461,-0.2468,-0.2439,-0.2442,-0.2434,-0.2418,-0.2414,-0.2414,-0.2332,-0.2308,-0.2176,-0.2154,-0.2411,-0.241,-0.241,-0.241,0,-0.2064,-0.2136,-0.2182,-0.2205,-0.2282,-0.2309,-0.2343,-0.2394,-0.2431,-0.2475,-0.2502,-0.2508,-0.2514,-0.2499,-0.2464,-0.2462,-0.2464,-0.2461,-0.2379,-0.2374,-0.2224,-0.2204,-0.2458,-0.2458,-0.2457,-0.2457,-0.2457,0,-0.2046,-0.2072,-0.2172,-0.2192,-0.2238,-0.23,-0.2351,-0.2387,-0.2457,-0.2479,-0.2513,-0.2518,-0.2527,-0.2517,-0.2487,-0.2432,-0.2475,-0.2384,-0.2373,-0.2231,-0.2213,-0.2423,-0.2418,-0.2458,-0.2458,-0.2458,-0.2458,0,-0.1968,-0.2046,-0.209,-0.2187,-0.2218,-0.2238,-0.234,-0.2376,-0.2454,-0.2486,-0.2497,-0.2541,-0.2517,-0.2512,-0.2495,-0.2453,-0.2418,-0.2382,-0.2214,-0.2182,-0.2328,-0.2325,-0.2321,-0.2318,-0.2316,-0.2314,-0.2313,0,-0.1935,-0.1952,-0.2055,-0.2085,-0.212,-0.2186,-0.2227,-0.2339,-0.2378,-0.2466,-0.2462,-0.2484,-0.2446,-0.2417,-0.2363,-0.2315,-0.2348,-0.2122,-0.2084,-0.2323,-0.2313,-0.2314,-0.2314,-0.1908,-0.1903,-0.19,-0.1897,0,-0.1849,-0.1882,-0.1923,-0.198,-0.2029,-0.2092,-0.2162,-0.2193,-0.23,-0.2339,-0.2343,-0.2332,-0.2325,-0.2199,-0.2158,-0.2093,-0.2122,-0.2042,-0.2329,-0.1965,-0.1934,-0.1925,-0.1938,-0.1862,-0.1866,-0.1868,-0.187,-0.1872,-0.1765,-0.1767,-0.1828,-0.1857,-0.1917,-0.1949,-0.1945,-0.2031,-0.2061,-0.2081,-0.2158,-0.211,-0.2106,-0.1972,-0.1866,-0.1793,-0.194,-0.184,-0.1852,-0.1868,-0.1812,-0.1779,-0.1668,-0.167,-0.1672,-0.1674,-0.1675,0,-0.1667,-0.1687,-0.1708,-0.1746,-0.1742,-0.1824,-0.1864,-0.1836,-0.1804,-0.1878,-0.1886,-0.1722,-0.1661,-0.1653,-0.1519,-0.1491,-0.1472,-0.1395,-0.1375,-0.141,-0.1441,-0.1363,-0.11,-0.1098,-0.1096,-0.1095,0,0,-0.1626,-0.1606,-0.1608,-0.156,-0.1581,-0.1537,-0.152,-0.1492,-0.1514,-0.1467,-0.1475,-0.1632,-0.1652,-0.1405,-0.1326,-0.1198,-0.1288,-0.1129,-0.1594,-0.1608,-0.1637,-0.1702,-0.1621,0,0,0,0,0]},{"header":{"parameterUnit":"m.s-1","parameterCategory":2,"la1":30.2991,"la2":30.254,"lo1":-89.0895,"lo2":-89.0444,"dy":0.0017,"dx":0.0017,"nx":28,"ny":28,"refTime":"2025-09-05T21:00:00:Z","depth":"2","parameterNumber":3,"parameterNumberName":"V-component_of_CURRENTS"},"data":[0,0,0,0,0,0,0,0,0,0,0,0,0,0,0,0,0,0,0,0,0,0,0,0,0,0,0,0,0,0,0,0,0,0,0,0,0,0,0,0,0,0,0,0,0,0,0,0,0,0,0,0,0,0,0,0,0,0,-0.0376,-0.0374,0,-0.033,-0.033,-0.0331,-0.0308,-0.0307,-0.0305,-0.0304,-0.0152,-0.0149,-0.0146,0,0,0,0,0,0,0,0,0,0,0,0,0,-0.046,-0.046,-0.0376,-0.0374,-0.0372,-0.033,-0.0331,-0.0331,-0.0308,-0.0306,-0.0305,-0.0303,-0.0153,-0.015,-0.0146,0,0,0,0,0,0,0,0,0,0,0,0,0,-0.0433,-0.046,-0.0376,-0.0346,-0.0341,-0.033,-0.0331,-0.0331,-0.0308,-0.0306,-0.0305,-0.0303,-0.0154,-0.015,-0.0146,-0.0157,0,0,-0.0132,-0.0131,0,0,0,0,0,0,0,0,-0.0435,-0.0432,-0.0352,-0.0348,-0.0343,-0.0311,-0.0304,-0.0263,-0.0309,-0.0335,-0.0304,-0.0302,-0.0188,-0.0181,-0.0197,-0.015,-0.0143,-0.0132,-0.0129,-0.0128,-0.0126,0,0,0,0,0,0,0,-0.0436,-0.0433,-0.0372,-0.035,-0.0344,-0.0338,-0.0334,-0.0298,-0.0281,-0.0333,-0.0328,-0.0301,-0.0186,-0.0202,-0.0193,-0.0141,-0.0132,-0.0128,-0.0126,-0.0124,-0.0049,-0.005,0,0,0,0,0,0,-0.0416,-0.0435,-0.0373,-0.0369,-0.0369,-0.0338,-0.0333,-0.0334,-0.0284,-0.0271,-0.0303,-0.03,-0.021,-0.0198,-0.0187,-0.0158,-0.0128,-0.0124,-0.0121,-0.0048,-0.0049,-0.005,0,0,0,0,0,0,-0.0419,-0.0412,-0.0374,-0.0388,-0.0381,-0.0337,-0.0339,-0.0334,-0.0331,-0.026,-0.0248,-0.03,-0.0208,-0.0193,-0.0135,-0.0152,-0.0122,-0.0118,-0.0048,-0.0049,-0.0049,-0.0123,0,0,0,0,0,0,-0.0422,-0.0415,-0.0418,-0.0388,-0.0379,-0.0355,-0.0339,-0.0334,-0.0311,-0.0308,-0.0254,-0.0239,-0.0205,-0.0142,-0.0131,-0.0146,-0.0114,-0.0047,-0.0048,-0.0049,-0.012,-0.0126,-0.0132,0,0,0,0,0,-0.0426,-0.0421,-0.042,-0.0411,-0.0384,-0.0353,-0.0351,-0.0321,-0.0313,-0.0314,-0.0271,-0.024,-0.0142,-0.0138,-0.0126,-0.0139,-0.0046,-0.0048,-0.0049,-0.0117,-0.0125,-0.0131,0,0,0,0,0,0,-0.0448,-0.0416,-0.0414,-0.0398,-0.0374,-0.0344,-0.0338,-0.0321,-0.0297,-0.0294,-0.0236,-0.0219,-0.0185,-0.0147,-0.0145,-0.0122,-0.0094,-0.0093,-0.015,-0.0157,-0.0163,-0.016,-0.0111,0,0,0,0,0,-0.0458,-0.0458,-0.0419,-0.041,-0.0401,-0.0377,-0.0363,-0.0347,-0.0311,-0.0301,-0.0273,-0.0232,-0.0188,-0.0156,-0.0128,-0.0101,-0.0052,-0.0105,-0.0111,-0.0117,-0.0106,-0.0041,-0.0039,-0.0054,-0.0054,-0.0054,0,0,-0.0468,-0.0444,-0.0448,-0.0416,-0.0407,-0.0401,-0.0368,-0.035,-0.0345,-0.0285,-0.0288,-0.0254,-0.0187,-0.0168,-0.015,-0.013,-0.0092,-0.0118,-0.0123,-0.0109,-0.0042,-0.004,-0.0039,-0.0055,-0.0055,-0.0055,0,0,-0.0474,-0.0469,-0.0472,-0.0467,-0.0436,-0.0415,-0.0405,-0.039,-0.0383,-0.0361,-0.0329,-0.0294,-0.0241,-0.0207,-0.0172,-0.0187,-0.0132,-0.019,-0.0207,-0.0145,-0.0143,-0.014,-0.0097,-0.0089,-0.0186,-0.0186,-0.0186,0,-0.0492,-0.0488,-0.0465,-0.0471,-0.0466,-0.0421,-0.0428,-0.0414,-0.0386,-0.0376,-0.0361,-0.0298,-0.0256,-0.0202,-0.0218,-0.02,-0.0159,-0.0186,-0.0152,-0.0148,-0.0144,-0.0099,-0.0091,-0.0189,-0.0189,-0.0189,-0.0188,0,-0.0502,-0.0513,-0.0513,-0.0513,-0.0504,-0.0503,-0.0472,-0.0478,-0.0455,-0.0429,-0.0392,-0.0341,-0.0293,-0.029,-0.0251,-0.0216,-0.0196,-0.0174,-0.0133,-0.0147,-0.01,-0.0089,-0.0195,-0.0193,-0.0192,-0.0191,0,0,-0.0521,-0.0523,-0.0532,-0.0549,-0.0535,-0.0529,-0.0525,-0.0495,-0.0486,-0.0457,-0.0432,-0.0376,-0.035,-0.0309,-0.0275,-0.0224,-0.0179,-0.0193,-0.0188,-0.0149,-0.005,-0.0032,-0.0018,-0.0147,-0.0146,-0.0144,-0.0036,0,-0.0543,-0.057,-0.0556,-0.0588,-0.0602,-0.0587,-0.0584,-0.0558,-0.0519,-0.0493,-0.0417,-0.0378,-0.0351,-0.0334,-0.0279,-0.0198,-0.0151,-0.0211,-0.0041,-0.0036,-0.0018,-0.0005,-0.0025,0.0072,-0.0025,-0.0023,-0.0022,0,-0.0566,-0.0578,-0.0616,-0.0638,-0.0643,-0.065,-0.0646,-0.0637,-0.0575,-0.0546,-0.0484,-0.0421,-0.0341,-0.0321,-0.0172,-0.021,-0.014,-0.0077,-0.007,-0.0014,0.0002,0.0075,0.0096,-0.0003,-0.0004,-0.0006,-0.0007,0,-0.0599,-0.0626,-0.0656,-0.0673,-0.068,-0.0695,-0.0691,-0.0655,-0.065,-0.0575,-0.0548,-0.0436,-0.0376,-0.0263,-0.0136,-0.0149,0.0033,0.0035,0.0118,0.0119,0.0158,0.016,0.0138,0.0138,0.0138,0.0137,0.0137,0,-0.063,-0.0659,-0.0678,-0.0706,-0.074,-0.0734,-0.0752,-0.0736,-0.0698,-0.0674,-0.0576,-0.0527,-0.0356,-0.0233,-0.0128,0.0036,0.0046,0.0126,0.0158,0.0128,0.0126,0.0109,0.0104,0.0141,0.0141,0.014,0.0139,0,-0.0656,-0.0674,-0.0717,-0.0746,-0.076,-0.0787,-0.0809,-0.082,-0.077,-0.0737,-0.0713,-0.0574,-0.041,-0.0243,-0.0046,0.0049,0.0197,0.0244,0.0189,0.0212,0.0235,0.0225,0.0354,0.0356,0.0357,0.0358,0.0359,0,-0.0673,-0.0696,-0.0759,-0.0803,-0.0817,-0.0856,-0.0888,-0.0864,-0.0866,-0.0767,-0.0749,-0.0583,-0.0464,-0.0164,0.0039,0.0248,0.0239,0.0343,0.0316,0.0244,0.0262,0.0249,0.0238,0.0331,0.0332,0.0332,0.0333,0,-0.0705,-0.0728,-0.0767,-0.0857,-0.0909,-0.0954,-0.0986,-0.0991,-0.0945,-0.0898,-0.0801,-0.0695,-0.04,-0.0156,0.0125,0.024,0.0311,0.0361,0.0333,0.0271,0.023,0.0244,0.0232,0.0338,0.0338,0.0337,0.0337,0.0337,-0.0734,-0.0776,-0.0847,-0.0919,-0.0985,-0.1039,-0.1064,-0.1067,-0.1052,-0.0962,-0.0853,-0.0673,-0.0419,-0.0024,0.0181,0.0377,0.0364,0.0414,0.041,0.0405,0.0375,0.0338,0.046,0.046,0.046,0.0461,0.0461,0,-0.0766,-0.0831,-0.0915,-0.1007,-0.1078,-0.1096,-0.1127,-0.1122,-0.1094,-0.0989,-0.0882,-0.0594,-0.0304,-0.0042,0.027,0.0449,0.0433,0.0477,0.0424,0.0418,0.0413,0.038,0.0469,0.0469,0.047,0.047,0,0,-0.0794,-0.0881,-0.0925,-0.1066,-0.1133,-0.1199,-0.1208,-0.117,-0.1097,-0.0989,-0.0851,-0.0653,-0.0314,-0.0092,0.0147,0.0315,0.0311,0.0328,0.0303,0.0205,0.0198,0.0363,0.0304,0,0,0,0,0]}],[{"header":{"parameterUnit":"m.s-1","parameterCategory":2,"la1":30.2991,"la2":30.254,"lo1":-89.0895,"lo2":-89.0444,"dy":0.0017,"dx":0.0017,"nx":28,"ny":28,"refTime":"2025-09-05T21:00:00:Z","depth":"4","parameterNumber":2,"parameterNumberName":"U-component_of_CURRENTS"},"data":[0,0,0,0,0,0,0,0,0,0,0,0,0,0,0,0,0,0,0,0,0,0,0,0,0,0,0,0,0,0,0,0,0,0,0,0,0,0,0,0,0,0,0,0,0,0,0,0,0,0,0,0,0,0,0,0,0,0,-0.0796,-0.0797,0,-0.083,-0.083,-0.083,-0.0866,-0.0867,-0.0867,-0.0868,-0.0932,-0.0933,-0.0934,0,0,0,0,0,0,0,0,0,0,0,0,0,-0.0731,-0.0733,-0.0796,-0.0797,-0.0797,-0.083,-0.083,-0.083,-0.0866,-0.0867,-0.0868,-0.0868,-0.0932,-0.0933,-0.0934,0,0,0,0,0,0,0,0,0,0,0,0,0,-0.0761,-0.0733,-0.0796,-0.082,-0.0822,-0.083,-0.083,-0.0831,-0.0866,-0.0867,-0.0868,-0.0869,-0.0931,-0.0933,-0.0935,-0.0928,0,0,-0.094,-0.0941,0,0,0,0,0,0,0,0,-0.0759,-0.0763,-0.0816,-0.0818,-0.0821,-0.0845,-0.0831,-0.0865,-0.0866,-0.0849,-0.0868,-0.0869,-0.0906,-0.091,-0.0913,-0.0931,-0.0934,-0.094,-0.0941,-0.0942,-0.0942,0,0,0,0,0,0,0,-0.0757,-0.0762,-0.0809,-0.0816,-0.0819,-0.0817,-0.0823,-0.0837,-0.0872,-0.085,-0.0853,-0.0858,-0.0907,-0.0911,-0.0914,-0.0935,-0.094,-0.0942,-0.0943,-0.0943,-0.1069,-0.1071,0,0,0,0,0,0,-0.0756,-0.076,-0.0808,-0.081,-0.0792,-0.0818,-0.0824,-0.0836,-0.0871,-0.0877,-0.0857,-0.0859,-0.0907,-0.0912,-0.0917,-0.1045,-0.0942,-0.0944,-0.0945,-0.1067,-0.107,-0.1072,0,0,0,0,0,0,-0.0754,-0.076,-0.0807,-0.0786,-0.0792,-0.0819,-0.0832,-0.0836,-0.0865,-0.0876,-0.0883,-0.0884,-0.0908,-0.0914,-0.0952,-0.1043,-0.0944,-0.0946,-0.1064,-0.1068,-0.1071,-0.1217,0,0,0,0,0,0,-0.0752,-0.0759,-0.078,-0.0786,-0.0793,-0.0827,-0.0831,-0.0836,-0.0865,-0.0869,-0.0901,-0.0906,-0.0909,-0.0949,-0.0953,-0.1044,-0.0947,-0.1061,-0.1066,-0.107,-0.1209,-0.1225,-0.1238,0,0,0,0,0,-0.075,-0.0745,-0.0781,-0.0787,-0.0817,-0.0828,-0.0832,-0.0852,-0.0866,-0.0881,-0.0904,-0.0906,-0.0981,-0.0951,-0.0956,-0.105,-0.1059,-0.1065,-0.107,-0.1202,-0.1221,-0.1238,0,0,0,0,0,0,-0.0715,-0.0749,-0.0788,-0.0795,-0.0829,-0.0835,-0.0852,-0.0865,-0.0895,-0.0907,-0.0918,-0.0925,-0.0999,-0.0988,-0.0955,-0.1096,-0.1028,-0.1034,-0.1127,-0.1145,-0.1159,-0.1216,-0.0949,0,0,0,0,0,-0.0724,-0.0753,-0.0778,-0.0801,-0.0817,-0.0847,-0.086,-0.0874,-0.0893,-0.0908,-0.0932,-0.0967,-0.1019,-0.105,-0.1073,-0.1137,-0.1113,-0.1203,-0.1218,-0.123,-0.1279,-0.1264,-0.1282,-0.1089,-0.1089,-0.1089,0,0,-0.0725,-0.0748,-0.0769,-0.0801,-0.0834,-0.0857,-0.0857,-0.0882,-0.0927,-0.091,-0.098,-0.101,-0.1042,-0.1125,-0.116,-0.1133,-0.1273,-0.1237,-0.1248,-0.129,-0.1271,-0.129,-0.1306,-0.1093,-0.1092,-0.1091,0,0,-0.0725,-0.0763,-0.0787,-0.0818,-0.0865,-0.0876,-0.0889,-0.0917,-0.0962,-0.1014,-0.1041,-0.1125,-0.1163,-0.1239,-0.1276,-0.138,-0.1342,-0.1389,-0.1527,-0.1511,-0.1527,-0.1541,-0.1539,-0.1552,-0.1407,-0.1408,-0.1408,0,-0.0732,-0.0761,-0.0795,-0.0825,-0.0862,-0.0889,-0.0922,-0.0964,-0.1005,-0.1056,-0.1051,-0.121,-0.1233,-0.1395,-0.1453,-0.1423,-0.1397,-0.146,-0.1532,-0.1545,-0.1556,-0.155,-0.1562,-0.1415,-0.1414,-0.1413,-0.1413,0,-0.074,-0.0784,-0.0799,-0.0863,-0.0905,-0.0929,-0.0994,-0.105,-0.1099,-0.1138,-0.1297,-0.1368,-0.1476,-0.1511,-0.1526,-0.1667,-0.1616,-0.154,-0.1489,-0.1585,-0.1572,-0.1582,-0.1426,-0.1423,-0.1421,-0.1419,0,0,-0.075,-0.0788,-0.0822,-0.0854,-0.0927,-0.0955,-0.1056,-0.1141,-0.1223,-0.1315,-0.1435,-0.1607,-0.1672,-0.1724,-0.1787,-0.1821,-0.1891,-0.1744,-0.1739,-0.1749,-0.1866,-0.1724,-0.1719,-0.181,-0.1812,-0.1814,-0.1825,0,-0.0769,-0.0791,-0.0841,-0.0917,-0.093,-0.1021,-0.1129,-0.1224,-0.1298,-0.1403,-0.1553,-0.1661,-0.1747,-0.1824,-0.19,-0.1886,-0.1923,-0.1897,-0.1769,-0.1767,-0.1632,-0.1728,-0.1822,-0.1832,-0.1834,-0.1836,-0.1837,0,-0.0796,-0.0804,-0.0843,-0.0947,-0.098,-0.1048,-0.1219,-0.1299,-0.1454,-0.1556,-0.1727,-0.1767,-0.1962,-0.1935,-0.207,-0.2043,-0.1997,-0.1966,-0.1961,-0.1794,-0.1643,-0.1714,-0.1853,-0.1852,-0.1851,-0.185,-0.1849,0,-0.0765,-0.0839,-0.086,-0.089,-0.0995,-0.1092,-0.1171,-0.1339,-0.1431,-0.1616,-0.1683,-0.1905,-0.1992,-0.2031,-0.2032,-0.2034,-0.2059,-0.2017,-0.1861,-0.1849,-0.1907,-0.1891,-0.2045,-0.2045,-0.2045,-0.2045,-0.2045,0,-0.0745,-0.0799,-0.085,-0.0862,-0.0984,-0.1072,-0.1228,-0.1367,-0.1523,-0.1617,-0.1758,-0.1869,-0.2001,-0.2011,-0.2029,-0.2,-0.2061,-0.1928,-0.1853,-0.1966,-0.1958,-0.1913,-0.1898,-0.2046,-0.2046,-0.2046,-0.2046,0,-0.0737,-0.0743,-0.0794,-0.09,-0.0956,-0.105,-0.1239,-0.1324,-0.1499,-0.1616,-0.1661,-0.1826,-0.189,-0.1946,-0.1962,-0.1955,-0.1925,-0.1858,-0.1998,-0.1921,-0.1741,-0.1734,-0.1757,-0.1752,-0.1748,-0.1745,-0.1742,0,-0.0717,-0.0719,-0.0823,-0.0865,-0.0928,-0.1063,-0.1161,-0.1338,-0.1395,-0.158,-0.1599,-0.1673,-0.1778,-0.1744,-0.1819,-0.1832,-0.1791,-0.1769,-0.1802,-0.1794,-0.1718,-0.1716,-0.1714,-0.1736,-0.1735,-0.1734,-0.1733,0,-0.0682,-0.0734,-0.0772,-0.0846,-0.0933,-0.1033,-0.114,-0.1187,-0.1353,-0.1483,-0.1535,-0.1561,-0.1608,-0.1675,-0.1649,-0.1658,-0.1809,-0.1728,-0.1738,-0.177,-0.1768,-0.1697,-0.1699,-0.1719,-0.1721,-0.1722,-0.1723,0,-0.0695,-0.0714,-0.0732,-0.0838,-0.0922,-0.0963,-0.1053,-0.1107,-0.1188,-0.1357,-0.1361,-0.1483,-0.1583,-0.1576,-0.1569,-0.1563,-0.1578,-0.1551,-0.1571,-0.1586,-0.1526,-0.1498,-0.1337,0,0,0,0,0,-0.0638,-0.0625,-0.0704,-0.0765,-0.0858,-0.0894,-0.1011,-0.1079,-0.1207,-0.121,-0.1289,-0.1329,-0.1382,-0.1431,-0.1398,-0.1497,-0.1571,-0.1451,-0.1547,-0.1642,-0.1658,-0.1603,0,0,0,0,0,0,-0.0584,-0.0594,-0.0652,-0.0687,-0.0727,-0.0783,-0.0861,-0.095,-0.0956,-0.1101,-0.1129,-0.1234,-0.1288,-0.1373,-0.1362,-0.1377,-0.141,-0.1517,-0.1514,-0.1633,-0.1648,-0.1661,-0.1609,0,0,0,0,0]},{"header":{"parameterUnit":"m.s-1","parameterCategory":2,"la1":30.2991,"la2":30.254,"lo1":-89.0895,"lo2":-89.0444,"dy":0.0017,"dx":0.0017,"nx":28,"ny":28,"refTime":"2025-09-05T21:00:00:Z","depth":"4","parameterNumber":3,"parameterNumberName":"V-component_of_CURRENTS"},"data":[0,0,0,0,0,0,0,0,0,0,0,0,0,0,0,0,0,0,0,0,0,0,0,0,0,0,0,0,0,0,0,0,0,0,0,0,0,0,0,0,0,0,0,0,0,0,0,0,0,0,0,0,0,0,0,0,0,0,0.0158,0.0159,0,0.0194,0.0194,0.0194,0.0246,0.0247,0.0248,0.0249,0.0308,0.0308,0.0309,0,0,0,0,0,0,0,0,0,0,0,0,0,0.0175,0.0174,0.0158,0.0159,0.0159,0.0194,0.0194,0.0194,0.0245,0.0247,0.0248,0.0249,0.0308,0.0308,0.0309,0,0,0,0,0,0,0,0,0,0,0,0,0,0.0183,0.0174,0.0158,0.019,0.0194,0.0194,0.0194,0.0194,0.0245,0.0247,0.0248,0.025,0.0307,0.0308,0.0309,0.0283,0,0,0.0312,0.0312,0,0,0,0,0,0,0,0,0.0182,0.0182,0.0185,0.0188,0.0192,0.0219,0.0222,0.0226,0.0245,0.0224,0.0249,0.0251,0.028,0.0283,0.0284,0.0286,0.0288,0.0312,0.0312,0.0313,0.0313,0,0,0,0,0,0,0,0.0182,0.0181,0.017,0.0186,0.019,0.0217,0.022,0.0223,0.0242,0.0226,0.023,0.0236,0.0282,0.0282,0.0285,0.0289,0.0312,0.0313,0.0313,0.0314,0.0317,0.0316,0,0,0,0,0,0,0.0177,0.018,0.0169,0.0172,0.0193,0.0216,0.0218,0.0207,0.0241,0.0248,0.0235,0.0239,0.028,0.0284,0.0288,0.0315,0.0313,0.0314,0.0314,0.0317,0.0317,0.0316,0,0,0,0,0,0,0.0177,0.0175,0.0168,0.018,0.0181,0.0214,0.0201,0.0207,0.0223,0.0248,0.0256,0.0247,0.0282,0.0287,0.029,0.0316,0.0314,0.0315,0.0318,0.0317,0.0316,0.0334,0,0,0,0,0,0,0.0177,0.0174,0.0176,0.0178,0.018,0.0168,0.02,0.0206,0.0224,0.023,0.026,0.0267,0.0283,0.0288,0.029,0.0317,0.0316,0.0318,0.0317,0.0317,0.0334,0.0334,0.0334,0,0,0,0,0,0.0177,0.0158,0.0175,0.0175,0.0176,0.0168,0.017,0.0199,0.0223,0.0221,0.024,0.0267,0.0286,0.0287,0.0291,0.0319,0.0319,0.0318,0.0317,0.0334,0.0334,0.0334,0,0,0,0,0,0,0.0168,0.0162,0.018,0.0163,0.0171,0.0177,0.0186,0.02,0.0212,0.0225,0.0251,0.0257,0.0274,0.0279,0.0281,0.0314,0.0311,0.031,0.0323,0.0323,0.0323,0.0375,0.0316,0,0,0,0,0,0.0166,0.0161,0.0157,0.0155,0.0154,0.0173,0.0179,0.0191,0.0199,0.0208,0.0226,0.0247,0.0267,0.0281,0.0289,0.0298,0.0296,0.0319,0.0319,0.0319,0.0361,0.0341,0.0344,0.0313,0.0313,0.0313,0,0,0.0168,0.0167,0.0166,0.0156,0.0169,0.0147,0.018,0.0183,0.0176,0.021,0.0212,0.0244,0.0266,0.0283,0.0293,0.0295,0.0319,0.0318,0.0318,0.0362,0.034,0.0344,0.0346,0.0312,0.0312,0.0312,0,0,0.0161,0.0162,0.0152,0.0148,0.0156,0.0147,0.0147,0.0148,0.0164,0.0158,0.0197,0.0244,0.0243,0.029,0.0308,0.0309,0.0315,0.0309,0.0363,0.0341,0.0344,0.0347,0.032,0.0321,0.0315,0.0315,0.0315,0,0.0169,0.0144,0.0151,0.0136,0.0128,0.0141,0.0115,0.0121,0.0127,0.0139,0.0156,0.0226,0.0253,0.0315,0.0341,0.0317,0.03,0.0363,0.0343,0.0346,0.0349,0.0321,0.0322,0.0316,0.0316,0.0316,0.0315,0,0.0145,0.013,0.0123,0.01,0.0088,0.0069,0.0063,0.0062,0.0077,0.0092,0.0154,0.0217,0.0269,0.0293,0.0332,0.0387,0.0365,0.034,0.0349,0.0354,0.0323,0.0323,0.0317,0.0316,0.0316,0.0316,0,0,0.0139,0.0109,0.0111,0.009,0.0063,0.0043,0.0026,0.0012,0.0007,0.0068,0.0082,0.0207,0.028,0.0312,0.0382,0.0418,0.043,0.0414,0.0412,0.0399,0.0378,0.0372,0.0371,0.0394,0.0395,0.0396,0.0338,0,0.0119,0.0084,0.0067,0.0018,-0.0015,-0.0022,-0.005,-0.005,-0.0037,-0.0031,0.0095,0.0129,0.027,0.0311,0.0384,0.0408,0.0437,0.0449,0.0368,0.0366,0.037,0.0374,0.0398,0.0339,0.0339,0.0339,0.0339,0,0.0091,0.0066,0.0026,-0.0038,-0.0053,-0.0086,-0.0125,-0.0141,-0.0122,-0.0098,0.001,0.0065,0.02,0.0266,0.039,0.0388,0.0411,0.0434,0.0429,0.0434,0.0364,0.0338,0.0339,0.0339,0.0339,0.0339,0.0339,0,0.0082,0.0026,-0.0006,-0.0023,-0.0088,-0.0108,-0.0145,-0.0151,-0.0176,-0.0133,-0.0146,0.0011,0.0063,0.016,0.0287,0.031,0.0359,0.035,0.0371,0.0368,0.0383,0.038,0.0399,0.0399,0.04,0.04,0.04,0,0.0056,0.0015,-0.0013,-0.003,-0.0114,-0.0127,-0.0195,-0.0205,-0.0218,-0.0247,-0.0154,-0.0124,0.0039,0.0095,0.0218,0.0319,0.0295,0.0406,0.0365,0.0384,0.0383,0.0381,0.0379,0.0397,0.0398,0.0398,0.0399,0,0.0035,0.0029,-0.0034,-0.0086,-0.012,-0.017,-0.0269,-0.031,-0.0301,-0.0338,-0.0333,-0.0256,-0.0156,-0.0019,0.009,0.0198,0.0284,0.0307,0.0316,0.0272,0.0321,0.0321,0.0317,0.0317,0.0317,0.0316,0.0316,0,0.0017,-0.0,-0.0073,-0.013,-0.0164,-0.0246,-0.0317,-0.0346,-0.0378,-0.0395,-0.0409,-0.0359,-0.0278,-0.013,0.0033,0.0201,0.0245,0.026,0.0351,0.0358,0.0319,0.0319,0.0319,0.0316,0.0315,0.0315,0.0315,0,-0.0016,-0.0023,-0.0067,-0.0185,-0.0266,-0.0369,-0.0445,-0.0486,-0.05,-0.0507,-0.0482,-0.0398,-0.031,-0.0138,-0.0027,0.0115,0.0245,0.0257,0.026,0.0346,0.0356,0.0317,0.0318,0.0314,0.0314,0.0314,0.0314,0,-0.0042,-0.008,-0.0119,-0.0248,-0.0358,-0.045,-0.0498,-0.0536,-0.0571,-0.056,-0.0548,-0.0438,-0.0366,-0.0186,-0.0063,0.0059,0.0113,0.016,0.0169,0.0172,0.0179,0.0174,0.0057,0,0,0,0,0,-0.0035,-0.0073,-0.0191,-0.0309,-0.0427,-0.0487,-0.057,-0.0592,-0.0606,-0.0598,-0.0569,-0.0474,-0.0296,-0.0217,-0.0095,-0.0052,0.0135,0.0094,0.0195,0.0308,0.0309,0.0347,0,0,0,0,0,0,-0.0032,-0.009,-0.0173,-0.0333,-0.0434,-0.0549,-0.0604,-0.0616,-0.0598,-0.0589,-0.0493,-0.0441,-0.0262,-0.0359,-0.009,-0.0053,0.0026,0.0182,0.0184,0.0307,0.0308,0.0309,0.0349,0,0,0,0,0]}]]